Regional Weather Roundup
Issued by NWS

Home | Current Version | Previous Version | Text Only | Print | Product List | Glossary Off
Versions: 1 2 3 4 5 6 7 8 9 10 11 12 13 14 15 16 17 18 19 20 21 22 23 24 25 26 27 28 29 30 31 32 33 34 35 36 37 38 39 40 41 42 43 44 45 46 47 48 49 50

000
ASUS43 KOAX 271602
RWRNE

WEATHER ROUNDUP FOR NEBRASKA
NATIONAL WEATHER SERVICE OMAHA NE
1000 AM CST SAT DEC 27 2014

NOTES: SATELLITE DATA IS BEING USED TO AUGMENT CLOUD COVER ABOVE
       12000 FEET.
       "FAIR" INDICATES FEW OR NO CLOUDS BELOW 12,000 FEET WITH NO
       SIGNIFICANT WEATHER AND/OR OBSTRUCTIONS TO VISIBILITY.

  * THESE STATIONS DO NOT REPORT WEATHER SUCH AS RAIN...SNOW OR FOG.

NEZ001>004-019>022-054>056-271700-
NEBRASKA PANHANDLE

CITY           SKY/WX    TMP DP  RH WIND       PRES   REMARKS
SCOTTSBLUFF    MOSUNNY    4   0  83 NW8       30.18R WCI  -9
ALLIANCE       SUNNY      6   2  83 W9        30.14R WCI  -8
CHADRON        SUNNY      8   5  87 W6        30.17R WCI  -2
SIDNEY         MOSUNNY   10   2  69 NW14      30.16R WCI  -6
$$

NEZ057>060-069>072-079>082-271700-
SOUTHWEST NEBRASKA

CITY           SKY/WX    TMP DP  RH WIND       PRES   REMARKS
NORTH PLATTE   MOSUNNY    3   0  87 SE3       30.25R FOG
IMPERIAL       SUNNY      7   2  80 W8        30.24R WCI  -6
LEXINGTON      MOSUNNY   13  11  90 W9        30.27R WCI   1
MCCOOK         CLOUDY    15  10  80 W8        30.27S WCI   4
$$

NEZ005>010-023>029-035>040-094-271700-
NORTH CENTRAL NEBRASKA

CITY           SKY/WX    TMP DP  RH WIND       PRES   REMARKS
VALENTINE      SUNNY      9   5  84 SW6       30.18R WCI  -1
AINSWORTH      SUNNY     11   7  84 W9        30.18R WCI  -1
BROKEN BOW     MOSUNNY   11   8  88 SW5       30.23R WCI   3
ORD            SUNNY     14   9  80 W7        30.24R WCI   4
$$

NEZ041-046>049-061>064-073>077-083>087-271700-
SOUTH CENTRAL NEBRASKA

CITY           SKY/WX    TMP DP  RH WIND       PRES   REMARKS
GRAND ISLAND   SUNNY     13   8  81 W9        30.26S WCI   1
AURORA         SUNNY     17  13  85 NW13      30.25R WCI   3
HASTINGS       SUNNY     15  10  80 NW8       30.24S WCI   4
HEBRON         SUNNY     20  15  81 NW7       30.30R WCI  11
KEARNEY *      SUNNY     14  10  85 W10       30.26R WCI   1
$$

NEZ011>018-030>034-042>045-271700-
NORTHEAST NEBRASKA

CITY           SKY/WX    TMP DP  RH WIND       PRES   REMARKS
NORFOLK        SUNNY     16  11  80 W10       30.22R WCI   4
BLAIR          SUNNY     21  16  80 NW9       30.24R WCI  11
COLUMBUS *     SUNNY     16   7  67 W9        30.27R WCI   4
TEKAMAH        SUNNY     20  14  77 NW17      30.26R WCI   5
$$

NEZ050>053-065>068-078-088>093-271700-
SOUTHEAST NEBRASKA

CITY           SKY/WX    TMP DP  RH WIND       PRES   REMARKS
LINCOLN        SUNNY     21  15  78 NW10      30.29R WCI  10
OMAHA EPPLEY   PTSUNNY   22  17  81 W8        30.28R WCI  12
FALLS CITY     CLOUDY    26  19  74 NW16      30.27S WCI  14
NEBRASKA CITY  MOSUNNY   23  19  86 NW12      30.26S WCI  12
$$

NEZ044-045-051>053-067-271700-
OMAHA AREA

CITY           SKY/WX    TMP DP  RH WIND       PRES   REMARKS
OMAHA EPPLEY   PTSUNNY   22  17  81 W8        30.28R WCI  12
BLAIR          SUNNY     21  16  80 NW9       30.24R WCI  11
OFFUTT AFB     SUNNY     23  17  80 W13       30.25R WCI  11
WAHOO          FAIR      20  15  78 NW13G18   30.27R WCI   8
$$


USA.gov is the U.S. government's official web portal to all federal, state and local government web resources and services.